Time[GMT],current_speed[cm/s](2m),current_direction[angular_degrees](2m),temperature[C](2m),current_u[cm/s](2m),current_v[cm/s](2m),signal_strength[db](2m),tilt[degrees](2m)
2019-06-01 18:00,26.37,111.8,11.17,24.48,-9.79,-16.56,2.71
2019-06-01 19:00,15.04,138.6,11.97,9.95,-11.28,-6.85,2.65
2019-06-01 20:00,20.56,148.8,11.57,10.65,-17.59,-10.27,2.60
2019-06-01 21:00,19.92,182.4,11.57,-0.83,-19.90,-13.18,2.92
2019-06-01 22:00,17.19,224.5,11.57,-12.05,-12.26,-12.70,2.88
2019-06-01 23:00,22.11,245.9,10.86,-20.18,-9.03,-14.03,3.68
2019-06-02 00:00,25.94,249.0,11.12,-24.22,-9.30,-13.22,3.60
2019-06-02 01:00,26.88,254.9,10.97,-25.95,-7.00,-15.99,4.07
2019-06-02 02:00,39.32,284.1,11.08,-38.14,9.58,-15.40,5.39
2019-06-02 03:00,32.40,291.7,11.19,-30.10,11.98,-15.04,3.94
2019-06-02 04:00,26.41,290.6,11.25,-24.72,9.29,-15.78,2.99
2019-06-02 05:00,13.53,289.0,11.21,-12.79,4.40,-15.60,2.27
2019-06-02 06:00,9.70,334.1,11.30,-4.24,8.73,-16.41,1.99
2019-06-02 07:00,14.93,345.6,11.32,-3.71,14.46,-16.25,2.51
2019-06-02 08:00,12.64,7.9,11.32,1.74,12.52,-15.66,2.58
2019-06-02 09:00,13.79,9.8,11.28,2.34,13.59,-16.18,1.77
2019-06-02 10:00,9.75,8.5,11.27,1.44,9.64,-16.31,2.76
2019-06-02 11:00,7.59,0.9,11.21,0.12,7.59,-15.80,3.10
2019-06-02 12:00,4.47,322.5,11.29,-2.72,3.54,-13.30,3.07
2019-06-02 13:00,8.47,263.1,11.35,-8.41,-1.02,-16.75,3.36
2019-06-02 14:00,9.60,253.5,11.41,-9.20,-2.73,-16.74,2.67
2019-06-02 15:00,11.59,200.6,11.40,-4.08,-10.85,-17.13,3.16
2019-06-02 16:00,11.45,176.7,11.38,0.66,-11.43,-16.08,3.73
2019-06-02 17:00,13.34,184.5,11.46,-1.05,-13.30,-13.34,3.59
2019-06-02 18:00,18.22,201.4,11.56,-6.65,-16.96,-14.84,3.83
2019-06-02 19:00,11.15,200.2,11.50,-3.85,-10.46,-15.54,3.55
2019-06-02 20:00,8.78,205.5,11.80,-3.78,-7.92,-15.08,3.50
2019-06-02 21:00,9.59,262.0,11.92,-9.50,-1.33,-12.72,4.09
2019-06-02 22:00,13.99,286.5,12.04,-13.41,3.97,-10.16,5.34
2019-06-02 23:00,14.84,307.8,12.08,-11.73,9.10,-8.74,4.52
2019-06-03 00:00,14.65,306.7,12.05,-11.75,8.76,-7.83,5.92
2019-06-03 01:00,17.39,318.0,11.99,-11.64,12.92,-7.46,6.99
2019-06-03 02:00,15.15,15.6,11.89,4.06,14.59,-10.09,5.04
2019-06-03 03:00,19.62,27.4,11.85,9.03,17.42,-10.17,5.12
2019-06-03 04:00,22.72,73.2,11.78,21.75,6.57,-11.24,4.30
2019-06-03 05:00,29.37,99.9,11.88,28.93,-5.05,-12.10,5.21
2019-06-03 06:00,35.54,118.1,11.87,31.35,-16.74,-13.11,5.66
2019-06-03 07:00,39.46,121.1,11.78,33.79,-20.38,-14.21,5.48
2019-06-03 08:00,37.11,134.7,11.73,26.38,-26.10,-14.75,5.06
2019-06-03 09:00,35.75,154.6,11.68,15.33,-32.29,-12.43,5.62
2019-06-03 10:00,28.09,163.3,11.76,8.07,-26.91,-12.34,5.11
2019-06-03 11:00,25.60,168.5,11.79,5.10,-25.09,-10.24,6.89
2019-06-03 12:00,22.19,176.5,11.82,1.35,-22.15,-12.27,4.53
2019-06-03 13:00,24.88,199.0,11.79,-8.10,-23.52,-11.20,4.38
2019-06-03 14:00,19.91,220.4,11.93,-12.90,-15.16,-13.49,3.36
2019-06-03 15:00,19.21,209.3,12.18,-9.40,-16.75,-13.29,3.61
2019-06-03 16:00,19.25,199.5,12.32,-6.43,-18.15,-11.67,3.29
2019-06-03 17:00,17.70,183.0,12.31,-0.93,-17.68,-9.97,4.76
2019-06-03 18:00,17.40,138.8,12.34,11.46,-13.09,-6.69,10.09
2019-06-03 19:00,29.26,120.3,12.36,25.26,-14.76,-4.91,10.04
2019-06-03 20:00,39.90,117.4,12.14,35.42,-18.36,-6.84,13.73
2019-06-03 21:00,37.76,124.4,11.99,31.16,-21.33,-5.43,14.02
2019-06-03 22:00,39.45,138.3,11.99,26.24,-29.45,-6.03,11.99
2019-06-03 23:00,,,,,,,
2019-06-04 00:00,45.54,155.0,11.79,19.25,-41.27,-5.82,12.60
2019-06-04 01:00,42.90,166.6,11.17,9.94,-41.73,-9.99,9.78
2019-06-04 02:00,42.09,183.8,11.17,-2.79,-42.00,-6.48,10.30
2019-06-04 03:00,46.55,187.5,10.95,-6.08,-46.15,-9.39,8.69
2019-06-04 04:00,45.48,184.2,10.67,-3.33,-45.36,-10.83,10.03
2019-06-04 05:00,40.16,195.9,10.34,-11.00,-38.62,-13.54,6.80
2019-06-04 06:00,33.51,194.6,10.04,-8.45,-32.43,-16.47,5.40
2019-06-04 07:00,29.41,201.4,9.79,-10.73,-27.38,-15.63,3.38
2019-06-04 08:00,21.28,209.5,9.61,-10.48,-18.52,-14.89,3.56
2019-06-04 09:00,13.29,253.9,9.54,-12.77,-3.69,-13.83,2.36
2019-06-04 10:00,21.33,289.6,9.86,-20.09,7.16,-9.50,3.69
2019-06-04 11:00,21.65,355.9,10.19,-1.56,21.59,-10.91,5.48
2019-06-04 12:00,24.10,17.5,10.21,7.24,22.99,-12.86,3.71
2019-06-04 13:00,22.23,36.9,9.85,13.34,17.78,-15.96,3.98
2019-06-04 14:00,19.89,27.0,10.19,9.02,17.73,-12.07,4.16
2019-06-04 15:00,23.46,92.0,10.06,23.45,-0.82,-16.04,4.28
2019-06-04 16:00,40.07,112.1,10.26,37.13,-15.08,-14.15,8.52
2019-06-04 17:00,46.74,134.4,10.46,33.39,-32.70,-14.66,8.35
2019-06-04 18:00,47.84,146.1,10.32,26.68,-39.71,-14.61,9.07
2019-06-04 19:00,44.98,153.5,10.35,20.07,-40.25,-14.77,7.44
2019-06-04 20:00,43.27,165.1,10.31,11.13,-41.82,-14.75,6.99
2019-06-04 21:00,38.85,171.0,10.44,6.08,-38.37,-16.00,6.90
2019-06-04 22:00,27.42,205.9,10.18,-11.98,-24.67,-13.59,3.48
2019-06-04 23:00,14.37,237.8,10.42,-12.16,-7.66,-13.96,2.59
2019-06-05 00:00,21.62,255.9,9.93,-20.97,-5.27,-16.04,3.30
2019-06-05 01:00,26.06,271.8,9.98,-26.05,0.82,-15.55,3.63
2019-06-05 02:00,22.64,297.7,10.34,-20.05,10.52,-11.77,3.32
2019-06-05 03:00,16.83,321.5,10.69,-10.48,13.17,-11.39,3.17
2019-06-05 04:00,2.91,297.1,10.76,-2.59,1.33,-11.10,2.53
2019-06-05 05:00,8.22,101.0,10.71,8.07,-1.57,-11.28,2.57
2019-06-05 06:00,15.29,123.6,10.51,12.74,-8.46,-11.46,3.83
2019-06-05 07:00,20.63,124.6,10.30,16.98,-11.71,-13.35,3.19
2019-06-05 08:00,28.99,120.7,10.08,24.93,-14.80,-16.08,3.23
2019-06-05 09:00,25.93,121.6,9.69,22.09,-13.59,-16.43,1.89
2019-06-05 10:00,19.36,114.3,9.80,17.64,-7.97,-6.29,1.87
2019-06-05 11:00,19.03,94.9,9.94,18.96,-1.63,-9.36,2.22
2019-06-05 12:00,10.09,118.2,9.94,8.89,-4.77,-8.38,2.25
2019-06-05 13:00,6.39,174.9,9.69,0.57,-6.37,-13.97,2.60
2019-06-05 14:00,5.61,195.1,9.69,-1.46,-5.41,-16.15,3.25
2019-06-05 15:00,17.04,180.6,9.69,-0.18,-17.04,-17.48,4.36
2019-06-05 16:00,14.97,275.3,10.46,-14.91,1.38,-10.17,4.12
2019-06-05 17:00,12.96,272.2,10.63,-12.95,0.50,-10.20,4.48
2019-06-05 18:00,11.14,228.1,10.73,-8.29,-7.44,-10.50,4.39
2019-06-05 19:00,18.38,233.7,11.15,-14.81,-10.88,-5.95,5.49
2019-06-05 20:00,17.76,233.2,11.08,-14.22,-10.64,-9.51,5.63
2019-06-05 21:00,8.44,235.2,11.26,-6.93,-4.82,-7.79,5.08
2019-06-05 22:00,11.25,262.9,11.05,-11.16,-1.39,-10.51,4.72
2019-06-05 23:00,22.64,310.4,11.60,-17.24,14.67,-7.41,6.66
2019-06-06 00:00,,,,,,,
2019-06-06 01:00,19.99,346.1,11.51,-4.82,19.40,-7.46,3.79
2019-06-06 02:00,14.78,339.0,11.50,-5.30,13.80,-7.19,3.39
2019-06-06 03:00,5.10,17.6,11.46,1.54,4.87,-6.36,2.95
2019-06-06 04:00,8.97,149.4,11.43,4.57,-7.72,-6.07,3.53
2019-06-06 05:00,17.23,177.2,11.50,0.84,-17.21,-5.29,4.06
2019-06-06 06:00,23.32,167.5,11.25,5.05,-22.77,-12.63,3.64
2019-06-06 07:00,25.83,165.7,11.11,6.38,-25.03,-15.96,4.26
2019-06-06 08:00,28.53,167.5,11.00,6.18,-27.85,-14.48,3.92
2019-06-06 09:00,17.35,183.3,11.12,-1.00,-17.32,-15.15,4.04
2019-06-06 10:00,15.31,210.1,11.43,-7.68,-13.25,-8.11,3.56
2019-06-06 11:00,14.68,215.0,11.22,-8.42,-12.03,-10.70,4.11
2019-06-06 12:00,18.56,225.0,11.53,-13.12,-13.12,-6.46,5.94
2019-06-06 13:00,49.38,269.1,11.41,-49.37,-0.78,-8.75,7.07
2019-06-06 14:00,30.22,290.2,11.24,-28.36,10.43,-12.51,4.86
2019-06-06 15:00,42.68,295.7,11.54,-38.46,18.51,-6.13,6.07
2019-06-06 16:00,33.78,303.4,11.49,-28.20,18.60,-8.06,4.67
2019-06-06 17:00,28.36,310.7,11.54,-21.50,18.49,-7.83,4.52
2019-06-06 18:00,13.74,317.0,11.78,-9.37,10.05,-7.37,3.94
2019-06-06 19:00,12.59,342.6,12.25,-3.76,12.01,-7.84,3.19
2019-06-06 20:00,9.60,30.4,12.21,4.86,8.28,-8.71,3.58
2019-06-06 21:00,12.19,74.0,12.52,11.72,3.36,-6.91,3.13
2019-06-06 22:00,17.84,81.6,12.33,17.65,2.61,-6.76,2.88
2019-06-06 23:00,28.87,101.4,12.45,28.30,-5.71,-8.56,4.79
2019-06-07 00:00,29.54,109.4,12.72,27.86,-9.81,-7.56,4.95
2019-06-07 01:00,21.77,127.6,12.51,17.25,-13.28,-7.44,3.97
2019-06-07 02:00,20.92,147.8,12.48,11.15,-17.70,-8.44,2.81
2019-06-07 03:00,15.11,171.4,12.56,2.26,-14.94,-8.28,2.23
2019-06-07 04:00,19.22,200.0,12.45,-6.57,-18.06,-7.76,2.68
2019-06-07 05:00,22.33,207.4,12.44,-10.28,-19.82,-6.91,3.15
2019-06-07 06:00,21.89,204.2,12.31,-8.97,-19.97,-8.11,3.30
2019-06-07 07:00,24.21,198.0,12.16,-7.48,-23.03,-9.09,3.48
2019-06-07 08:00,23.97,193.3,11.92,-5.51,-23.33,-6.97,3.43
2019-06-07 09:00,16.27,192.8,11.85,-3.60,-15.87,-8.27,2.89
2019-06-07 10:00,18.41,217.5,11.92,-11.21,-14.61,-8.04,2.72
2019-06-07 11:00,16.19,235.9,12.06,-13.41,-9.08,-7.42,2.54
2019-06-07 12:00,15.65,259.8,12.11,-15.40,-2.77,-6.61,2.88
2019-06-07 13:00,28.04,305.2,12.19,-22.91,16.16,-5.39,2.51
2019-06-07 14:00,27.97,329.1,12.18,-14.36,24.00,-6.03,2.74
2019-06-07 15:00,24.53,339.2,12.63,-8.71,22.93,-5.60,3.09
2019-06-07 16:00,19.63,2.1,12.81,0.73,19.62,-4.90,3.30
2019-06-07 17:00,13.34,17.8,13.07,4.07,12.70,-5.66,2.86
2019-06-07 18:00,11.35,28.3,13.37,5.38,9.99,-5.28,3.76
2019-06-07 19:00,9.05,59.7,13.57,7.82,4.56,-4.86,3.84
2019-06-07 20:00,15.27,81.7,13.37,15.11,2.20,-5.13,2.77
2019-06-07 21:00,19.76,114.9,13.36,17.92,-8.32,-6.80,3.59
2019-06-07 22:00,27.28,132.0,12.93,20.27,-18.25,-6.76,2.96
2019-06-07 23:00,26.73,121.3,13.28,22.84,-13.89,-6.64,3.26
2019-06-08 00:00,24.96,119.9,13.17,21.64,-12.44,-5.24,2.99
2019-06-08 01:00,20.72,135.5,12.76,14.52,-14.78,-4.20,2.95
2019-06-08 02:00,11.60,191.3,12.63,-2.27,-11.38,-3.29,3.40
2019-06-08 03:00,11.92,187.2,12.51,-1.49,-11.83,-2.71,4.43
2019-06-08 04:00,12.95,202.4,12.62,-4.93,-11.97,-3.05,4.38
2019-06-08 05:00,18.18,205.9,12.73,-7.94,-16.35,-2.49,3.42
2019-06-08 06:00,21.60,219.2,12.68,-13.65,-16.74,-1.43,3.20
2019-06-08 07:00,20.53,209.5,12.62,-10.11,-17.87,-1.29,5.35
2019-06-08 08:00,15.18,211.4,12.60,-7.91,-12.96,-2.11,4.41
2019-06-08 09:00,16.38,219.4,12.57,-10.40,-12.66,-2.52,4.14
2019-06-08 10:00,16.87,204.1,12.54,-6.89,-15.40,-2.65,4.02
2019-06-08 11:00,18.71,238.0,12.56,-15.87,-9.91,-2.57,3.86
2019-06-08 12:00,21.30,269.0,12.47,-21.30,-0.37,-3.61,2.45
2019-06-08 13:00,12.23,302.1,12.43,-10.36,6.50,-2.68,2.31
2019-06-08 14:00,22.16,315.0,12.44,-15.67,15.67,-1.87,3.28
2019-06-08 15:00,14.17,344.3,12.42,-3.83,13.64,-1.99,2.44
2019-06-08 16:00,16.46,344.0,12.64,-4.54,15.82,-2.28,2.39
2019-06-08 17:00,16.24,343.3,13.26,-4.67,15.56,-2.03,3.02
2019-06-08 18:00,10.52,12.5,13.39,2.29,10.27,-2.26,3.47
2019-06-08 19:00,17.16,28.3,14.18,8.13,15.11,-1.75,4.14
2019-06-08 20:00,14.81,70.3,13.82,13.94,4.99,-2.02,3.91
2019-06-08 21:00,19.61,88.7,13.73,19.60,0.44,-1.84,5.62
2019-06-08 22:00,28.38,108.4,13.50,26.93,-8.96,-2.95,4.89
2019-06-08 23:00,31.59,108.7,13.30,29.92,-10.13,-2.66,4.14
2019-06-09 00:00,27.29,105.5,13.35,26.30,-7.29,-1.07,4.59
2019-06-09 01:00,28.69,111.9,13.16,26.62,-10.70,-1.11,4.11
2019-06-09 02:00,16.69,136.5,12.75,11.49,-12.11,-0.84,3.33
2019-06-09 03:00,17.72,135.3,12.97,12.46,-12.60,-0.87,3.52
2019-06-09 04:00,16.88,210.0,12.98,-8.44,-14.62,-1.06,3.07
2019-06-09 05:00,16.97,192.1,13.01,-3.56,-16.59,-1.09,3.52
2019-06-09 06:00,14.01,208.5,12.84,-6.68,-12.31,-1.65,3.34
2019-06-09 07:00,22.48,224.7,12.65,-15.81,-15.98,-0.26,4.19
2019-06-09 08:00,20.40,217.5,12.91,-12.42,-16.18,-0.51,3.19
2019-06-09 09:00,16.52,222.1,13.13,-11.08,-12.26,-0.90,3.20
2019-06-09 10:00,16.81,295.9,13.21,-15.12,7.34,-1.04,3.02
2019-06-09 11:00,10.71,257.5,13.27,-10.46,-2.32,-0.54,2.43
2019-06-09 12:00,7.08,56.3,13.30,5.89,3.93,-0.83,2.36
2019-06-09 13:00,6.90,75.0,13.27,6.67,1.79,-2.15,2.21
2019-06-09 14:00,9.17,26.9,13.30,4.15,8.18,-1.77,1.88
2019-06-09 15:00,8.82,99.2,13.06,8.71,-1.41,-4.15,1.69
2019-06-09 16:00,16.45,86.4,13.18,16.42,1.03,-3.38,2.00
2019-06-09 17:00,9.03,56.7,13.44,7.55,4.96,-2.01,2.39
2019-06-09 18:00,9.47,92.5,13.66,9.46,-0.41,-1.94,2.20
2019-06-09 19:00,8.43,83.1,13.93,8.37,1.01,-1.43,2.51
2019-06-09 20:00,13.93,110.1,14.17,13.08,-4.79,-0.85,3.08
2019-06-09 21:00,18.10,128.9,14.02,14.09,-11.37,-0.89,3.54
2019-06-09 22:00,21.15,125.3,13.98,17.26,-12.22,-0.58,4.01
2019-06-09 23:00,26.56,125.2,13.97,21.70,-15.31,-0.57,4.70
2019-06-10 00:00,15.85,122.7,13.89,13.34,-8.56,-0.49,5.75
2019-06-10 01:00,14.14,111.4,13.80,13.17,-5.16,-0.62,6.79
2019-06-10 02:00,16.45,91.2,13.85,16.45,-0.34,-0.59,6.97
2019-06-10 03:00,11.80,79.2,13.84,11.59,2.21,-0.59,8.36
2019-06-10 04:00,23.38,80.6,13.84,23.07,3.82,-0.56,6.61
2019-06-10 05:00,29.56,81.7,13.80,29.25,4.27,-0.39,6.74
2019-06-10 06:00,20.07,89.1,13.78,20.07,0.32,-0.30,5.71
2019-06-10 07:00,16.22,121.8,13.80,13.79,-8.55,-0.31,5.98
2019-06-10 08:00,21.42,133.2,13.88,15.61,-14.66,-0.48,4.99
2019-06-10 09:00,26.61,145.1,13.89,15.22,-21.82,-0.55,5.01
2019-06-10 10:00,22.81,146.5,13.88,12.59,-19.02,-0.84,4.51
2019-06-10 11:00,19.77,143.2,13.98,11.84,-15.83,-0.94,4.71
2019-06-10 12:00,21.63,117.7,14.10,19.15,-10.05,-1.05,5.42
2019-06-10 13:00,17.43,97.8,14.14,17.27,-2.37,-1.09,5.75
2019-06-10 14:00,23.80,78.1,14.24,23.29,4.91,-1.13,6.11
2019-06-10 15:00,24.26,90.1,14.43,24.26,-0.04,-0.97,5.55
2019-06-10 16:00,13.97,75.4,14.61,13.52,3.52,-1.02,5.41
2019-06-10 17:00,14.41,68.3,14.68,13.39,5.33,-1.02,4.84
2019-06-10 18:00,13.62,34.3,14.73,7.68,11.25,-1.18,4.41
2019-06-10 19:00,11.63,66.8,14.44,10.69,4.58,-1.44,5.54
2019-06-10 20:00,6.33,1.3,14.56,0.14,6.32,-0.76,3.40
2019-06-10 21:00,3.32,94.0,14.62,3.31,-0.23,-0.96,3.42
2019-06-10 22:00,1.11,235.1,14.57,-0.91,-0.63,-1.37,4.11
2019-06-10 23:00,2.56,154.1,14.51,1.12,-2.30,-1.53,4.35
2019-06-11 00:00,1.27,286.5,14.49,-1.22,0.36,-1.31,4.09
2019-06-11 01:00,11.65,44.5,14.45,8.16,8.31,-1.73,6.12
2019-06-11 02:00,14.41,61.1,14.39,12.61,6.97,-1.18,5.79
2019-06-11 03:00,17.48,24.8,14.16,7.33,15.87,-1.63,7.58
2019-06-11 04:00,23.19,32.1,13.55,12.31,19.66,-1.82,8.14
2019-06-11 05:00,23.57,22.4,13.33,8.97,21.79,-2.03,7.33
2019-06-11 06:00,21.26,37.6,13.41,12.97,16.84,-1.71,9.15
2019-06-11 07:00,16.94,5.3,13.33,1.58,16.87,-1.88,8.92
2019-06-11 08:00,28.36,356.0,13.25,-1.96,28.29,-1.54,11.02
2019-06-11 09:00,24.12,19.4,13.16,8.00,22.75,-2.07,9.89
2019-06-11 10:00,30.78,26.6,13.18,13.76,27.53,-1.55,10.10
2019-06-11 11:00,25.14,34.1,12.98,14.08,20.83,-2.32,8.93
2019-06-11 12:00,26.01,58.5,12.65,22.17,13.60,-2.28,9.10
2019-06-11 13:00,28.80,79.5,12.74,28.32,5.25,-2.55,8.47
2019-06-11 14:00,36.03,85.0,12.89,35.89,3.14,-2.47,8.82
2019-06-11 15:00,41.28,96.8,12.99,40.99,-4.89,-3.65,8.22
2019-06-11 16:00,39.41,100.5,13.00,38.75,-7.18,-5.01,7.66
2019-06-11 17:00,30.91,95.7,13.01,30.76,-3.07,-5.81,7.60
2019-06-11 18:00,26.11,120.9,12.72,22.40,-13.41,-6.40,4.99
2019-06-11 19:00,24.44,130.6,12.64,18.56,-15.90,-7.35,5.58
2019-06-11 20:00,20.70,161.7,12.39,6.50,-19.65,-4.74,7.36
2019-06-11 21:00,25.28,184.4,12.17,-1.94,-25.21,-6.78,7.46
2019-06-11 22:00,25.57,198.2,11.97,-7.99,-24.29,-6.55,8.85
2019-06-11 23:00,18.94,182.6,11.84,-0.86,-18.92,-7.65,8.07
2019-06-12 00:00,24.94,182.0,11.76,-0.87,-24.92,-5.72,8.47
2019-06-12 01:00,24.80,221.0,11.66,-16.27,-18.72,-6.22,6.65
2019-06-12 02:00,19.92,222.1,12.00,-13.35,-14.78,-5.68,4.20
2019-06-12 03:00,12.68,230.2,12.45,-9.74,-8.12,-4.00,4.32
2019-06-12 04:00,14.08,258.4,12.87,-13.79,-2.83,-3.36,2.61
2019-06-12 05:00,14.38,255.0,12.98,-13.89,-3.72,-3.62,2.21
2019-06-12 06:00,14.35,293.2,13.05,-13.19,5.65,-3.55,2.17
2019-06-12 07:00,17.52,301.5,13.06,-14.94,9.15,-3.62,2.27
2019-06-12 08:00,17.36,305.9,13.12,-14.06,10.18,-3.68,2.43
2019-06-12 09:00,12.74,320.5,13.14,-8.10,9.83,-3.49,2.53
2019-06-12 10:00,12.13,11.2,13.12,2.37,11.90,-3.42,3.20
2019-06-12 11:00,21.46,65.0,13.11,19.45,9.07,-3.75,4.35
2019-06-12 12:00,27.88,93.6,12.99,27.82,-1.75,-3.71,5.39
2019-06-12 13:00,36.92,111.7,12.97,34.30,-13.65,-3.84,4.57
2019-06-12 14:00,30.18,120.0,12.48,26.14,-15.09,-4.87,3.03
2019-06-12 15:00,33.60,156.4,12.89,13.45,-30.79,-4.33,2.75
2019-06-12 16:00,33.41,172.5,12.85,4.36,-33.12,-4.23,2.31
2019-06-12 17:00,31.80,210.9,12.97,-16.33,-27.29,-6.24,2.00
2019-06-12 18:00,20.58,248.2,13.78,-19.11,-7.64,-4.45,2.98
2019-06-12 19:00,23.59,276.3,13.44,-23.45,2.59,-4.60,4.32
2019-06-12 20:00,25.70,310.3,13.76,-19.60,16.62,-4.73,6.13
2019-06-12 21:00,30.28,327.6,13.69,-16.22,25.57,-4.93,8.05
2019-06-12 22:00,30.61,340.4,13.50,-10.27,28.84,-5.05,8.56
2019-06-12 23:00,30.93,356.7,13.42,-1.80,30.88,-6.43,8.03
2019-06-13 00:00,35.47,43.2,13.26,24.27,25.86,-5.50,8.27
2019-06-13 01:00,36.48,62.7,13.16,32.42,16.73,-3.49,8.75
2019-06-13 02:00,,,,,,,
2019-06-13 03:00,,,,,,,
2019-06-13 04:00,41.37,96.9,12.86,41.07,-4.97,-3.35,9.53
2019-06-13 05:00,32.68,108.3,12.71,31.03,-10.26,-4.60,7.47
2019-06-13 06:00,30.46,130.0,12.78,23.33,-19.58,-5.01,6.05
2019-06-13 07:00,20.42,150.2,12.97,10.15,-17.72,-3.81,3.70
2019-06-13 08:00,11.84,197.7,13.06,-3.60,-11.28,-3.73,3.68
2019-06-13 09:00,18.18,224.5,13.00,-12.74,-12.97,-4.53,3.58
2019-06-13 10:00,17.43,229.8,12.97,-13.31,-11.25,-4.59,3.00
2019-06-13 11:00,16.40,240.3,13.07,-14.25,-8.13,-4.78,3.22
2019-06-13 12:00,9.97,248.0,13.04,-9.24,-3.73,-4.82,3.02
2019-06-13 13:00,10.14,265.6,12.99,-10.11,-0.78,-5.19,3.33
2019-06-13 14:00,6.82,234.4,12.94,-5.55,-3.97,-5.40,3.90
2019-06-13 15:00,15.68,305.3,12.92,-12.80,9.06,-5.20,6.65
2019-06-13 16:00,15.53,356.5,12.83,-0.95,15.50,-3.71,8.22
2019-06-13 17:00,23.74,7.9,12.79,3.25,23.52,-5.79,7.71
2019-06-13 18:00,23.40,348.2,12.75,-4.79,22.90,-3.92,6.28
2019-06-13 19:00,12.76,328.2,12.70,-6.72,10.84,-1.55,10.79
2019-06-13 20:00,15.29,267.4,12.66,-15.27,-0.69,-0.32,12.35
2019-06-13 21:00,27.38,259.9,12.56,-26.96,-4.80,-1.95,11.62
2019-06-13 22:00,22.77,250.0,12.50,-21.40,-7.79,-1.86,11.94
2019-06-13 23:00,25.59,243.0,12.48,-22.80,-11.62,-6.38,9.63
2019-06-14 00:00,21.02,243.1,12.46,-18.75,-9.51,-5.89,9.53
2019-06-14 01:00,22.54,209.5,12.40,-11.10,-19.62,-5.94,9.71
2019-06-14 02:00,19.46,210.4,12.30,-9.85,-16.78,-6.40,6.75
2019-06-14 03:00,18.53,192.8,12.17,-4.11,-18.07,-8.62,7.32
2019-06-14 04:00,16.39,176.1,12.03,1.11,-16.35,-8.87,5.01
2019-06-14 05:00,19.54,140.1,11.98,12.53,-14.99,-8.69,5.28
2019-06-14 06:00,17.22,126.2,12.12,13.90,-10.17,-9.04,5.78
2019-06-14 07:00,14.64,131.6,12.16,10.95,-9.72,-8.66,5.34
2019-06-14 08:00,22.54,136.8,12.20,15.43,-16.43,-8.60,6.16
2019-06-14 09:00,18.90,171.7,12.16,2.73,-18.70,-8.03,5.08
2019-06-14 10:00,10.43,197.0,12.14,-3.05,-9.97,-9.63,3.63
2019-06-14 11:00,7.91,209.8,12.10,-3.93,-6.86,-9.94,3.38
2019-06-14 12:00,13.19,170.1,12.06,2.27,-12.99,-9.49,4.18
2019-06-14 13:00,17.40,176.4,11.97,1.09,-17.37,-10.39,3.79
2019-06-14 14:00,19.45,160.6,11.94,6.46,-18.35,-10.93,3.82
2019-06-14 15:00,8.29,183.8,12.12,-0.55,-8.27,-9.85,3.82
2019-06-14 16:00,9.24,192.1,12.39,-1.94,-9.03,-9.61,4.97
2019-06-14 17:00,3.10,167.4,12.56,0.68,-3.03,-7.25,5.05
2019-06-14 18:00,11.67,111.5,12.64,10.86,-4.28,-7.37,5.94
2019-06-14 19:00,2.53,343.7,12.84,-0.71,2.43,-5.92,5.64
2019-06-14 20:00,1.55,48.1,12.85,1.16,1.04,-6.27,5.76
2019-06-14 21:00,7.33,16.8,12.85,2.12,7.02,-5.70,5.67
2019-06-14 22:00,12.42,51.4,12.86,9.70,7.75,-2.98,6.23
2019-06-14 23:00,15.45,69.0,12.91,14.42,5.54,-2.49,8.20
2019-06-15 00:00,22.83,111.5,13.01,21.24,-8.37,-2.37,8.17
2019-06-15 01:00,33.85,135.8,13.11,23.60,-24.27,-1.77,8.34
2019-06-15 02:00,40.39,143.6,13.11,23.97,-32.51,-1.42,9.22
2019-06-15 03:00,45.53,150.9,13.03,22.14,-39.78,-1.72,9.23
2019-06-15 04:00,45.79,161.1,12.96,14.83,-43.32,-1.82,7.03
2019-06-15 05:00,40.64,172.0,13.02,5.66,-40.24,-1.35,6.05
2019-06-15 06:00,35.99,191.1,12.96,-6.93,-35.32,-1.75,6.00
2019-06-15 07:00,30.96,214.1,12.67,-17.36,-25.64,-2.02,5.51
2019-06-15 08:00,29.78,261.5,12.54,-29.45,-4.40,-1.96,6.63
2019-06-15 09:00,26.94,277.4,12.95,-26.72,3.47,-3.41,5.98
2019-06-15 10:00,24.82,320.5,13.04,-15.79,19.15,-2.72,4.66
2019-06-15 11:00,16.92,328.6,13.06,-8.82,14.44,-2.69,4.49
2019-06-15 12:00,10.70,348.3,13.11,-2.18,10.48,-2.59,3.06
2019-06-15 13:00,14.68,49.6,13.18,11.17,9.52,-2.60,4.89
2019-06-15 14:00,20.10,87.3,13.34,20.08,0.95,-2.62,4.39
2019-06-15 15:00,23.73,115.3,13.46,21.45,-10.14,-2.64,3.32
2019-06-15 16:00,29.83,130.1,13.45,22.82,-19.21,-2.49,2.73
2019-06-15 17:00,21.79,142.1,13.39,13.39,-17.19,-2.34,3.05
2019-06-15 18:00,11.11,135.0,13.42,7.86,-7.86,-2.67,5.53
2019-06-15 19:00,4.49,146.7,13.31,2.46,-3.75,-3.11,6.38
2019-06-15 20:00,2.14,65.8,13.31,1.95,0.88,-2.31,8.10
2019-06-15 21:00,16.61,347.2,13.35,-3.69,16.19,-2.38,8.94
2019-06-15 22:00,28.74,7.0,13.44,3.48,28.53,-3.40,12.29
2019-06-15 23:00,34.43,14.8,13.44,8.78,33.29,-2.91,11.67
2019-06-16 00:00,34.67,38.0,13.35,21.35,27.32,-3.53,11.87
2019-06-16 01:00,30.00,54.6,13.28,24.46,17.37,-4.00,11.22
2019-06-16 02:00,31.06,71.1,13.22,29.39,10.06,-2.23,10.77
2019-06-16 03:00,,,,,,,
2019-06-16 04:00,28.56,109.0,12.87,27.00,-9.30,-4.33,9.58
2019-06-16 05:00,35.00,119.8,12.70,30.37,-17.39,-3.93,9.66
2019-06-16 06:00,29.80,129.5,12.40,22.99,-18.96,-4.93,7.05
2019-06-16 07:00,28.62,141.0,12.63,18.01,-22.24,-4.76,6.15
2019-06-16 08:00,25.40,142.1,12.49,15.60,-20.04,-5.69,5.30
2019-06-16 09:00,14.81,135.8,12.43,10.33,-10.62,-5.59,4.99
2019-06-16 10:00,13.68,145.3,12.28,7.79,-11.25,-5.86,3.84
2019-06-16 11:00,7.83,181.3,12.31,-0.18,-7.83,-5.28,4.60
2019-06-16 12:00,14.42,252.9,12.30,-13.78,-4.24,-5.63,3.72
2019-06-16 13:00,8.10,283.3,12.37,-7.88,1.86,-5.82,4.00
2019-06-16 14:00,8.07,306.8,12.57,-6.46,4.83,-5.78,3.20
2019-06-16 15:00,6.40,320.5,12.67,-4.07,4.94,-6.00,3.91
2019-06-16 16:00,6.97,57.5,12.72,5.88,3.74,-5.88,3.61
2019-06-16 17:00,2.58,47.5,12.73,1.90,1.74,-5.59,4.97
2019-06-16 18:00,3.82,73.8,12.68,3.67,1.07,-6.43,4.51
2019-06-16 19:00,7.05,89.8,12.64,7.05,0.02,-6.01,4.20
2019-06-16 20:00,7.20,25.7,12.64,3.12,6.48,-6.14,4.06
2019-06-16 21:00,11.20,18.4,12.66,3.54,10.63,-6.70,4.52
2019-06-16 22:00,17.51,7.6,12.70,2.32,17.36,-6.18,3.92
2019-06-16 23:00,16.46,5.8,12.84,1.65,16.38,-7.17,4.17
2019-06-17 00:00,12.66,2.8,12.82,0.61,12.65,-6.99,3.01
2019-06-17 01:00,10.43,44.0,12.80,7.24,7.51,-7.83,2.34
2019-06-17 02:00,6.59,74.5,12.79,6.35,1.76,-8.76,2.13
2019-06-17 03:00,9.52,119.1,12.75,8.32,-4.63,-10.92,2.08
2019-06-17 04:00,18.19,150.4,12.70,8.98,-15.82,-8.36,2.38
2019-06-17 05:00,14.43,159.6,12.66,5.03,-13.52,-10.26,2.12
2019-06-17 06:00,21.84,176.3,12.64,1.41,-21.79,-11.86,2.87
2019-06-17 07:00,21.12,194.0,12.66,-5.11,-20.49,-14.18,2.94
2019-06-17 08:00,18.66,204.9,12.71,-7.86,-16.93,-11.64,2.69
2019-06-17 09:00,14.93,238.5,12.75,-12.73,-7.80,-12.01,2.31
2019-06-17 10:00,14.88,245.6,12.91,-13.55,-6.15,-8.82,2.23
2019-06-17 11:00,26.57,322.5,12.64,-16.17,21.08,-15.80,2.54
2019-06-17 12:00,31.17,331.6,13.05,-14.83,27.42,-9.70,3.10
2019-06-17 13:00,26.83,347.2,13.13,-5.95,26.16,-9.24,2.59
2019-06-17 14:00,22.57,19.2,13.20,7.42,21.31,-9.94,2.51
2019-06-17 15:00,21.94,58.0,13.25,18.61,11.62,-9.27,2.35
2019-06-17 16:00,16.61,94.4,13.17,16.56,-1.27,-9.03,1.69
2019-06-17 17:00,24.72,122.9,13.26,20.76,-13.43,-8.28,1.93
2019-06-17 18:00,31.90,132.7,13.23,23.44,-21.63,-9.18,2.10
2019-06-17 19:00,31.37,145.1,13.87,17.95,-25.73,-4.45,1.85
2019-06-17 20:00,23.01,163.5,13.80,6.54,-22.06,-4.28,2.21
2019-06-17 21:00,14.95,176.0,13.53,1.04,-14.91,-4.09,3.19
2019-06-17 22:00,0.72,98.2,13.67,0.71,-0.10,-3.85,5.98
2019-06-17 23:00,19.73,334.8,14.03,-8.40,17.85,-5.98,7.82
2019-06-18 00:00,47.45,339.7,14.12,-16.46,44.50,-5.48,10.82
2019-06-18 01:00,32.51,13.2,14.09,7.43,31.65,-5.67,8.35
2019-06-18 02:00,25.19,35.8,13.96,14.74,20.43,-5.48,4.88
2019-06-18 03:00,23.66,75.4,14.00,22.90,5.96,-3.87,5.12
2019-06-18 04:00,,,,,,,
2019-06-18 05:00,16.87,131.3,13.62,12.67,-11.13,-4.76,2.70
2019-06-18 06:00,20.76,143.0,13.52,12.49,-16.58,-4.98,3.55
2019-06-18 07:00,26.01,157.8,13.50,9.83,-24.08,-5.55,3.93
2019-06-18 08:00,22.73,165.0,13.49,5.88,-21.96,-4.56,3.46
2019-06-18 09:00,21.01,194.7,13.31,-5.33,-20.32,-5.85,3.52
2019-06-18 10:00,16.40,230.0,13.19,-12.56,-10.54,-5.66,2.91
2019-06-18 11:00,12.97,254.9,13.16,-12.52,-3.38,-4.81,2.39
2019-06-18 12:00,47.46,300.0,13.34,-41.10,23.73,-5.27,7.25
2019-06-18 13:00,39.85,328.2,13.68,-21.00,33.87,-13.49,5.31
2019-06-18 14:00,25.70,338.7,13.93,-9.34,23.94,-7.38,3.32
2019-06-18 15:00,14.15,350.6,14.01,-2.31,13.96,-9.00,2.53